OSLO / GARDERMOEN current weather conditions

sailwx.info

Wind from 020 at 6 knots

Air temperature 8.0° C
Visibility: greater than 5.4 NM
Dewpoint 7.0° C

Last reported at 2015-May-05 12:20 UTC.
Time now 2015-May-05 14:16 UTC

Location: N 60°12' E 011°05'.
View on Google Maps.

See reports from other nearby stations

  
Tides and Currents Weather Stations Pressure Air Temp Water Temp Dewpoint Dewpoint Depression Visibility Wind Speed Wind Dir Waves Ship Positions
date/time (UTC)wind fromknots sea level pressurealtimeterstation pressurevisibilityair tempwater tempwave heightnotes
2015-May-05 13:20 5.4 9.0
2015-May-05 12:50 060 7 5.4 9.0
2015-May-05 12:20 020 6 5.4 8.0
2015-May-05 11:50 020 6 5.4 7.0
2015-May-05 11:20 020 6 5.4 7.0
2015-May-05 10:50 010 5 5.4 7.0
2015-May-05 10:20 360 3 5.4 7.0
2015-May-05 09:50 010 5 5.4 7.0
2015-May-05 09:20 030 5 5.4 6.0
2015-May-05 08:50 020 6 5.4 6.0 Light drizzle.
2015-May-05 08:20 360 5 5.4 6.0
2015-May-05 07:50 020 5 5.4 6.0
2015-May-05 07:20 360 4 5.4 5.0
2015-May-05 06:50 5.4 5.0
2015-May-05 06:20 5.4 5.0
2015-May-05 05:50 5.4 5.0
2015-May-05 05:20 5.4 5.0 Showers in the vicinity.
2015-May-05 04:50 010 2 5.4 4.0
2015-May-05 04:20 010 1 5.4 4.0
2015-May-05 03:50 020 2 5.4 4.0
2015-May-05 03:20 050 3 5.4 4.0
2015-May-05 02:50 5.4 4.0
2015-May-05 02:20 020 3 5.4 4.0
2015-May-05 01:50 030 3 5.4 4.0
2015-May-05 01:20 5.4 5.0
2015-May-05 00:50 5.4 5.0
2015-May-05 00:20 310 2 5.4 5.0
2015-May-04 23:50 330 2 5.4 5.0
2015-May-04 23:20 5.4 5.0
2015-May-04 22:50 5.4 5.0
2015-May-04 22:20 5.4 5.0
2015-May-04 21:50 5.4 5.0
2015-May-04 21:20 5.4 5.0
2015-May-04 20:50 5.4 5.0
2015-May-04 20:20 5.4 5.0
2015-May-04 19:50 030 4 5.4 5.0
2015-May-04 19:20 010 4 5.4 5.0
2015-May-04 18:50 360 3 5.4 5.0
2015-May-04 18:20 010 5 4.3 5.0
2015-May-04 17:50 020 6 3.2 5.0
2015-May-04 17:20 010 6 2.7 5.0 Light drizzle.
2015-May-04 16:50 020 6 3.2 5.0 Light rain.
2015-May-04 16:20 020 7 2.2 5.0 Light rain. Mist.
2015-May-04 15:50 010 6 3.2 5.0 Light rain.
2015-May-04 15:20 020 7 3.2 6.0 Light rain.
2015-May-04 14:50 020 7 2.4 6.0 Light rain. Mist.
2015-May-04 14:20 030 6 2.7 6.0 Light rain.
2015-May-04 13:50 040 6 3.2 5.0 Light rain.
2015-May-04 13:20 050 5 4.9 5.0 Light rain.
2015-May-04 12:50 060 7 3.2 5.0 Rain.
2015-May-04 12:20 070 7 3.8 5.0 Light rain.
2015-May-04 11:50 070 8 3.8 5.0 Light rain.
2015-May-04 11:20 070 7 3.8 5.0 Light rain.
2015-May-04 10:50 050 7 4.9 5.0 Light rain.
2015-May-04 10:20 050 7 5.4 5.0 Light rain.
2015-May-04 09:50 070 9 5.4 4.0 Light rain.
2015-May-04 09:20 070 7 5.4 4.0 Light rain.
2015-May-04 08:50 090 6 5.4 5.0 Light rain.
2015-May-04 08:20 120 10 5.4 5.0 Light rain.
2015-May-04 07:50 120 10 5.4 6.0 Light rain.
2015-May-04 07:20 100 8 5.4 7.0 Light rain.
2015-May-04 06:50 120 6 6.0
2015-May-04 06:20 080 7 6.0
2015-May-04 05:50 080 5 6.0
2015-May-04 05:20 080 6 6.0
2015-May-04 04:50 050 3 5.0
2015-May-04 04:20 5.0
2015-May-04 03:50 070 3 5.4 5.0
2015-May-04 03:20 070 3 5.0
2015-May-04 02:50 040 3 4.0
2015-May-04 02:20 030 2 3.0
2015-May-04 01:50 030 6 3.0
2015-May-04 01:20 030 4 3.0
2015-May-04 00:50 030 3 3.0
2015-May-04 00:20 020 3 3.0
2015-May-03 23:50 040 4 3.0
2015-May-03 23:20 040 4 3.0
2015-May-03 22:50 030 4 4.0
2015-May-03 22:20 030 4 4.0
2015-May-03 21:50 050 3 4.0
2015-May-03 21:20 050 4 4.0
2015-May-03 20:50 050 3 6.0
2015-May-03 20:20 080 4 8.0
2015-May-03 19:20 080 4 9.0
2015-May-03 18:50 110 4 9.0
2015-May-03 18:20 080 4 9.0
2015-May-03 17:50 080 3 10.0
2015-May-03 17:20 090 3 10.0
2015-May-03 16:50 100 4 10.0
2015-May-03 16:20 140 4 10.0
2015-May-03 15:50 240 3 10.0
2015-May-03 15:20 10.0
2015-May-03 14:50 10.0
2015-May-03 14:20 10.0